Weather History for PAGL - March, 2013

Change the Weather History Date:

Saturday, March 16, 2013

  Actual Average Record
Temperature  
Mean Temperature 14 °F -  
Max Temperature 21 °F - - ()
Min Temperature 6 °F - - ()
Degree Days  
Heating Degree Days 50    
Moisture  
Dew Point 8 °F    
Average Humidity 71    
Maximum Humidity 100    
Minimum Humidity 49    
Precipitation  
Precipitation 0.00 in - - ()
Sea Level Pressure  
Sea Level Pressure 29.89 in    
Wind  
Wind Speed 19 mph (ESE)    
Max Wind Speed 36 mph    
Max Gust Speed 39 mph    
Visibility 7 miles    
Events      
T = Trace of Precipitation, MM = Missing Value Source: NWS Daily Summary

Daily Weather History Graph

Daily Weather History Graph

Search for Another Location

Airport or City:

Trip Planner

Search our weather history database for the weather conditions in past years. The results will help you decide how hot, cold, wet, or windy it might be!

Date:

Astronomy

Mar. 16, 2013 Rise Set
Actual Time 9:05 AM AKDT 8:57 PM AKDT
Civil Twilight 8:17 AM AKDT 9:45 PM AKDT
Nautical Twilight 7:19 AM AKDT 10:44 PM AKDT
Astronomical Twilight 6:14 AM AKDT 11:49 PM AKDT
Moon 9:46 AM AKDT (3/16) 3:14 AM AKDT (3/16)
Length of Visible Light 13h 28m
Length of Day
11h 52m
Waxing Crescent, 24% of the Moon is Illuminated
Mar 16
Waxing Crescent
Mar 19
First Quarter
Mar 27
Full
Apr 2
Last Quarter
Apr 10
New

Hourly Weather History & Observations

Time (AKDT) Temp. Windchill Dew Point Humidity Pressure Visibility Wind Dir Wind Speed Gust Speed Precip Events Conditions
12:16 AM 17.6 °F 1.7 °F 5.0 °F 58% 29.77 in 10.0 mi SE 18.4 mph 26.5 mph N/A   Overcast
12:36 AM 17.6 °F 3.7 °F 3.2 °F 53% 29.78 in 10.0 mi SE 13.8 mph 24.2 mph N/A   Overcast
12:56 AM 17.6 °F 5.7 °F 8.6 °F 68% 29.79 in 10.0 mi SE 10.4 mph - N/A   Overcast
1:16 AM 17.6 °F 2.2 °F 5.0 °F 58% 29.78 in 10.0 mi SE 17.3 mph - N/A   Overcast
1:36 AM 17.6 °F 1.7 °F 3.2 °F 53% 29.79 in 10.0 mi ESE 18.4 mph - N/A   Overcast
1:56 AM 15.8 °F -0.2 °F 6.8 °F 68% 29.79 in 10.0 mi ESE 17.3 mph - N/A   Overcast
2:16 AM 17.6 °F 3.2 °F 3.2 °F 53% 29.79 in 10.0 mi ESE 15.0 mph - N/A   Overcast
2:36 AM 17.6 °F 4.3 °F 6.8 °F 63% 29.79 in 10.0 mi ESE 12.7 mph - N/A   Overcast
2:56 AM 17.6 °F 2.7 °F 3.2 °F 53% 29.79 in 10.0 mi East 16.1 mph - N/A   Overcast
3:16 AM 15.8 °F 2.1 °F 5.0 °F 62% 29.79 in 10.0 mi East 12.7 mph - N/A   Overcast
3:36 AM 15.8 °F 0.9 °F 1.4 °F 53% 29.79 in 10.0 mi ENE 15.0 mph - N/A   Overcast
3:56 AM 15.8 °F 0.3 °F 3.2 °F 58% 29.79 in 10.0 mi East 16.1 mph - N/A   Overcast
4:16 AM 17.6 °F 1.7 °F 1.4 °F 49% 29.79 in 10.0 mi East 18.4 mph - N/A   Overcast
4:36 AM 17.6 °F 1.7 °F 3.2 °F 53% 29.79 in 10.0 mi East 18.4 mph 24.2 mph N/A   Overcast
4:56 AM 15.8 °F 0.9 °F 1.4 °F 53% 29.79 in 10.0 mi East 15.0 mph - N/A   Overcast
5:16 AM 15.8 °F 0.9 °F 1.4 °F 53% 29.79 in 10.0 mi East 15.0 mph - N/A   Overcast
5:36 AM 15.8 °F 0.3 °F 1.4 °F 53% 29.79 in 10.0 mi East 16.1 mph - N/A   Overcast
5:56 AM 15.8 °F 0.9 °F 3.2 °F 58% 29.79 in 10.0 mi East 15.0 mph - N/A   Overcast
6:16 AM 15.8 °F 1.4 °F 1.4 °F 53% 29.79 in 10.0 mi East 13.8 mph - N/A   Mostly Cloudy
6:36 AM 15.8 °F 0.9 °F 1.4 °F 53% 29.80 in 10.0 mi East 15.0 mph 20.7 mph N/A   Mostly Cloudy
6:56 AM 15.8 °F 0.9 °F 1.4 °F 53% 29.80 in 10.0 mi East 15.0 mph 20.7 mph N/A   Scattered Clouds
7:16 AM 15.8 °F 2.7 °F 1.4 °F 53% 29.81 in 10.0 mi East 11.5 mph - N/A   Clear
7:36 AM 15.8 °F 0.3 °F 1.4 °F 53% 29.81 in 10.0 mi East 16.1 mph - N/A   Clear
7:56 AM 15.8 °F -0.6 °F 3.2 °F 58% 29.81 in 10.0 mi East 18.4 mph 23.0 mph N/A   Clear
8:16 AM 15.8 °F -0.6 °F 3.2 °F 58% 29.82 in 10.0 mi East 18.4 mph 25.3 mph N/A   Clear
8:36 AM 14.0 °F -3.4 °F 1.4 °F 57% 29.82 in 10.0 mi East 19.6 mph - N/A   Clear
8:56 AM 14.0 °F -5.1 °F 1.4 °F 57% 29.82 in 10.0 mi East 24.2 mph - N/A   Clear
9:16 AM 15.8 °F -4.1 °F 3.2 °F 58% 29.82 in 10.0 mi East 28.8 mph 33.4 mph N/A   Clear
9:36 AM 15.8 °F -3.4 °F 3.2 °F 58% 29.83 in 10.0 mi East 26.5 mph 33.4 mph N/A   Clear
9:56 AM 15.8 °F -0.6 °F 5.0 °F 62% 29.85 in 10.0 mi East 18.4 mph 27.6 mph N/A   Scattered Clouds
10:16 AM 15.8 °F -1.1 °F 3.2 °F 58% 29.85 in 10.0 mi East 19.6 mph 29.9 mph N/A   Overcast
10:36 AM 15.8 °F -3.4 °F 3.2 °F 58% 29.84 in 10.0 mi ESE 26.5 mph 34.5 mph N/A   Overcast
10:56 AM 15.8 °F -4.1 °F 5.0 °F 62% 29.85 in 10.0 mi ESE 28.8 mph 34.5 mph N/A   Overcast
11:16 AM 15.8 °F -5.8 °F 6.8 °F 68% 29.84 in 7.0 mi ESE 35.7 mph 39.1 mph N/A   Overcast
11:36 AM 15.8 °F -4.7 °F 8.6 °F 73% 29.85 in 2.5 mi ESE 31.1 mph 38.0 mph N/A   Overcast
11:56 AM 14.0 °F -7.1 °F 10.4 °F 86% 29.86 in 0.5 mi ESE 31.1 mph 38.0 mph N/A   Overcast
12:16 PM 14.0 °F -6.2 °F 10.4 °F 86% 29.86 in 0.2 mi ESE 27.6 mph 35.7 mph N/A   Overcast
12:36 PM 15.8 °F -3.7 °F 10.4 °F 79% 29.87 in 0.5 mi ESE 27.6 mph 34.5 mph N/A   Overcast
12:56 PM 15.8 °F -4.4 °F 10.4 °F 79% 29.86 in 0.5 mi East 29.9 mph 35.7 mph N/A   Overcast
1:16 PM 15.8 °F -4.7 °F 12.2 °F 86% 29.87 in 0.5 mi East 31.1 mph 36.8 mph N/A   Overcast
1:36 PM 15.8 °F -4.1 °F 12.2 °F 86% 29.88 in 0.5 mi East 28.8 mph 35.7 mph N/A   Overcast
1:56 PM 15.8 °F -4.7 °F 12.2 °F 86% 29.88 in 0.5 mi East 31.1 mph 36.8 mph N/A   Overcast
2:16 PM 17.6 °F -2.5 °F 12.2 °F 79% 29.88 in 0.5 mi East 32.2 mph 38.0 mph N/A   Overcast
2:36 PM 17.6 °F -2.2 °F 12.2 °F 79% 29.89 in 0.2 mi East 31.1 mph 36.8 mph N/A   Overcast
2:56 PM 17.6 °F -1.0 °F 12.2 °F 79% 29.90 in 0.5 mi East 26.5 mph 33.4 mph N/A   Overcast
3:16 PM 17.6 °F -1.3 °F 12.2 °F 79% 29.90 in 0.2 mi East 27.6 mph 32.2 mph N/A   Overcast
3:36 PM 17.6 °F -1.3 °F 12.2 °F 79% 29.90 in 0.2 mi East 27.6 mph - N/A   Overcast
3:56 PM 17.6 °F -0.3 °F 10.4 °F 73% 29.91 in 0.8 mi ESE 24.2 mph 32.2 mph N/A   Overcast
4:16 PM 19.4 °F 1.4 °F 10.4 °F 68% 29.91 in 1.0 mi ESE 26.5 mph 32.2 mph N/A   Overcast
4:36 PM 21.2 °F 3.5 °F 12.2 °F 68% 29.91 in 1.2 mi ESE 27.6 mph 35.7 mph N/A   Overcast
4:56 PM 19.4 °F 1.1 °F 17.6 °F 93% 29.92 in 1.0 mi ESE 27.6 mph - N/A   Overcast
5:16 PM 19.4 °F 0.8 °F 19.4 °F 100% 29.92 in 1.0 mi SE 28.8 mph 34.5 mph N/A   Overcast
5:36 PM 19.4 °F 0.2 °F 19.4 °F 100% 29.93 in 0.8 mi SE 31.1 mph 34.5 mph N/A   Overcast
5:56 PM 19.4 °F 0.5 °F 17.6 °F 93% 29.94 in 0.8 mi ESE 29.9 mph - N/A   Overcast
6:16 PM 19.4 °F 1.1 °F 12.2 °F 74% 29.94 in 1.0 mi SE 27.6 mph 32.2 mph N/A   Overcast
6:36 PM 21.2 °F 4.9 °F 12.2 °F 68% 29.96 in 0.8 mi SSE 23.0 mph 33.4 mph N/A   Overcast
6:56 PM 19.4 °F 4.5 °F 19.4 °F 100% 29.97 in 1.2 mi South 17.3 mph - N/A   Overcast
7:16 PM 19.4 °F 3.6 °F 17.6 °F 93% 29.98 in 2.0 mi South 19.6 mph - N/A   Overcast
7:36 PM 19.4 °F 3.6 °F 12.2 °F 74% 29.99 in 4.0 mi SSE 19.6 mph - N/A   Overcast
7:56 PM 19.4 °F 4.5 °F 17.6 °F 93% 30.00 in 5.0 mi SSE 17.3 mph - N/A   Overcast
8:16 PM 19.4 °F 4.1 °F 17.6 °F 93% 30.01 in 4.0 mi SSE 18.4 mph - N/A   Overcast
8:36 PM 17.6 °F 0.9 °F 15.8 °F 93% 30.02 in 9.0 mi SSE 20.7 mph - N/A   Overcast
8:56 PM 17.6 °F 1.7 °F 12.2 °F 79% 30.03 in 8.0 mi SSE 18.4 mph - N/A   Overcast
9:16 PM 15.8 °F 0.9 °F 10.4 °F 79% 30.04 in 10.0 mi SSE 15.0 mph - N/A   Mostly Cloudy
9:36 PM 14.0 °F -1.4 °F 8.6 °F 79% 30.05 in 10.0 mi SSE 15.0 mph - N/A   Partly Cloudy
9:56 PM 12.2 °F -3.7 °F 6.8 °F 79% 30.07 in 10.0 mi SSE 15.0 mph - N/A   Partly Cloudy
10:16 PM 12.2 °F -2.5 °F 5.0 °F 73% 30.08 in 10.0 mi SSE 12.7 mph - N/A   Partly Cloudy
10:36 PM 10.4 °F -4.1 °F 3.2 °F 73% 30.09 in 10.0 mi SSE 11.5 mph - N/A   Scattered Clouds
10:56 PM 10.4 °F -3.3 °F 3.2 °F 73% 30.10 in 10.0 mi SSE 10.4 mph - N/A   Partly Cloudy
11:16 PM 8.6 °F -4.7 °F 8.6 °F 100% 30.10 in 10.0 mi SSE 9.2 mph - N/A   Clear
11:36 PM 8.6 °F -4.7 °F 8.6 °F 100% 30.11 in 10.0 mi SSE 9.2 mph - N/A   Clear
11:56 PM 6.8 °F -3.5 °F - N/A% 30.12 in 10.0 mi South 5.8 mph - N/A   Scattered Clouds